Regional Weather Roundup
Issued by NWS

Home | Current Version | Previous Version | Graphics & Text | Print | Product List | Glossary Off
Versions: 1 2 3 4 5 6 7 8 9 10 11 12 13 14 15 16 17 18 19 20 21 22 23 24 25 26 27

000
ASUS45 KTFX 211010
RWRMT
MONTANA REGIONAL WEATHER ROUNDUP
NATIONAL WEATHER SERVICE GREAT FALLS MT
300 AM MST SAT JAN 21 2017

NOTE: "FAIR" INDICATES FEW OR NO CLOUDS BELOW 12000 FEET WITH NO
SIGNIFICANT WEATHER AND/OR OBSTRUCTIONS TO VISIBILITY.

MTZ001>007-043-211100-
WEST OF THE DIVIDE

CITY           SKY/WX    TMP DP  RH WIND       PRES   REMARKS
KALISPELL      CLEAR     16  13  88 NW3       29.33R
MISSOULA       CLOUDY    21  20  96 CALM      29.35R FOG
BUTTE          CLOUDY     2  -2  83 CALM      29.30S
MULLAN PASS    CLOUDY    22  20  92 SE8       29.23R WCI  12
ANACONDA         N/A     16   9  73 S3        29.31S
DEER LODGE       N/A     12   9  85 NW3       29.34R
EUREKA           N/A     19  18  93 CALM      29.38R
HAMILTON         N/A     21  16  79 CALM      29.33R
PLAINS           N/A     24  20  85 CALM      29.38R
RONAN            N/A     11   7  84 CALM      29.39R
$$

MTZ008-052>055-211100-
SOUTHWEST MONTANA

CITY           SKY/WX    TMP DP  RH WIND       PRES   REMARKS
BOZEMAN        CLOUDY     6   2  83 CALM      29.33S
DILLON         CLOUDY    20   8  60 SW8       29.30R WCI  10
W YELLOWSTONE  CLOUDY    14  10  85 CALM      29.32S
ENNIS          CLOUDY    14  10  85 SE6       29.35S WCI   5
TWIN BRIDGES     N/A     11   2  67 E3        29.39R
$$

MTZ009-010-012-014-046-048-049-054-211100-
EAST SLOPES AND CENTRAL MONTANA

CITY           SKY/WX    TMP DP  RH WIND       PRES   REMARKS
CUT BANK       CLEAR     16  13  88 NW7       29.32R WCI   6
GREAT FALLS    CLEAR     21  16  81 W5        29.33R
MALMSTROM AFB  CLEAR     22  18  87 CALM      29.34R
HELENA         CLOUDY    10   7  87 CALM      29.35R
AUGUSTA          N/A     18  13  82 NW13      29.30R WCI   5
BOWMANS CRNR     N/A     22  16  78 S12       29.28S WCI  10
CHOTEAU          N/A     21  18  86 CALM      29.33S
CONRAD           N/A      7   4  87 SE3       29.41R
POWER            N/A     11   6  78 CALM      29.32R
RAYNESFORD       N/A     22  15  72 CALM      29.33R
ULM              N/A     23  16  75 MISG      29.33R
$$

MTZ011-013-016-021-045-047-050-051-211100-
NORTH CENTRAL MONTANA

CITY           SKY/WX    TMP DP  RH WIND       PRES   REMARKS
HAVRE          PTCLDY    16  14  92 CALM      29.37R
LEWISTOWN      CLEAR     19  15  84 CALM      29.33S
CHINOOK          N/A     19  18  93 CALM      29.38R
DENTON           N/A     21  16  82 S9        29.31R WCI  10
GEYSER           N/A     25  16  70 SW7       29.32R WCI  17
GRASS RANGE      N/A     25  20  82 W3        29.30S
JUDITH GAP       N/A     19  14  81 S7        29.32S WCI  10
ROY              N/A     25  21  85 MISG      29.32R
STANFORD         N/A     26  15  65 W8        29.32R WCI  17
WINIFRED         N/A     30  20  66 SW3       29.32S
$$

MTZ017>020-022>027-061-062-211100-
NORTHEAST MONTANA

CITY           SKY/WX    TMP DP  RH WIND       PRES   REMARKS
GLASGOW        CLOUDY    20  18  92 W7        29.35R WCI  11
JORDAN           N/A     16  12  84 CALM      29.35S
SIDNEY         CLOUDY    34  28  79 W16       29.32R WCI  24
WOLF POINT     CLOUDY    27  24  89 SW7       29.35S WCI  19
PLENTYWOOD       N/A     30  27  86 NW8       29.30S WCI  23
POPLAR           N/A     27  23  86 W9        29.35S WCI  17
SCOBEY           N/A     29  20  69 CALM      29.34R
$$

MTZ028>42-056>058-211100-
SOUTHCENTRAL AND SOUTHEAST MONTANA

CITY           SKY/WX    TMP DP  RH WIND       PRES   REMARKS
BAKER          CLOUDY    26  24  92 W6        29.34S WCI  19
BILLINGS       PTCLDY    22  20  92 SW14      29.35S WCI   9
LIVINGSTON     CLOUDY    13   7  77 NW5       29.33S
MILES CITY     FOG       20  17  88 CALM      29.37R VSB 1/4
BIG TIMBER     CLEAR     19  14  79 CALM      29.35F
EKALAKA          N/A     30  27  89 SW9       29.38R WCI  22
FORSYTH          N/A     21  21 100 CALM      29.36S VSB 1/2
HARLOWTON        N/A     17  12  80 W14       29.33S WCI   3
LAUREL           N/A     17  12  80 SW2       29.39S
$$

REGIONAL REPORTS...DAKOTAS

CITY           SKY/WX    TMP DP  RH WIND       PRES   REMARKS
WILLISTON      CLOUDY    25  22  88 CALM      29.30F
MINOT          CLOUDY    29  27  92 CALM      29.30F FOG
DICKINSON      CLOUDY    29  26  89 NW9       29.26F WCI  20
BEACH          CLOUDY    30  28  93 W17       29.34F WCI  18
CROSBY         CLOUDY    14  12  92 CALM      29.31F
TIOGA          FOG       10  10 100 SW3       29.30S VSB 3/4
WATFORD CITY   CLOUDY    25  25 100 W6        29.29F WCI  18
BISMARCK       CLOUDY    30  29  96 NW5       29.32S FOG
GRAND FORKS    CLOUDY    36  32  85 SE9       29.40F WCI  29
FARGO          CLOUDY    38  35  89 SE12      29.39F WCI  30
BUFFALO SD       N/A     31  28  89 W15       29.26S WCI  20
RAPID CITY     CLOUDY    34  31  88 N12       29.34S WCI  25
$$

REGIONAL REPORTS...WYOMING/IDAHO/WASHINGTON

CITY           SKY/WX    TMP DP  RH WIND       PRES   REMARKS
GILLETTE       CLEAR     24  22  91 CALM      29.35F
SHERIDAN       CLEAR     19  13  77 SE9       29.35S WCI   8
BUFFALO WY     CLEAR     28  17  63 CALM      29.35S
CODY           CLOUDY    20  11  68 SW6       29.33F WCI  12
YELLOWSTONE LA   N/A      6   4  91 CALM      29.33S
IDAHO FALLS    CLOUDY    25  23  92 NW8       29.30S WCI  16
SALMON         CLOUDY    10   9  92 CALM      29.36R
BOISE          CLOUDY    35  32  88 SE10      29.31R WCI  27
SPOKANE        CLOUDY    36  29  75 SE3       29.27R
$$

REGIONAL REPORTS...ALBERTA

CITY           SKY/WX    TMP DP  RH WIND       PRES   REMARKS
EDMONTON       CLOUDY    14  12  92 CALM      29.40R VSB 1/8
CALGARY        CLEAR     16   9  73 CALM      29.34R
LETHBRIDGE     CLEAR     21  18  86 SW10      29.34R WCI  10
MEDICINE HAT   CLEAR     21  18  86 S6        29.34S WCI  14
WATERTON GATE    N/A     18  12  79 SW7         N/A  WCI   8
CARDSTON         N/A     19  12  73 SW1         N/A
MILK RIVER       N/A     19  16  86 W5          N/A
$$

REGIONAL REPORTS...SASKATCHEWAN

CITY           SKY/WX    TMP DP  RH WIND       PRES   REMARKS
SWIFT CURRENT  CLOUDY    25  23  93 NW10      29.29R WCI  15
REGINA         CLOUDY    18  16  93 E3        29.28F
SASKATOON      CLOUDY    28  27  93 N8        29.35S WCI  20
CYPRESS HILLS    N/A     25  12  58 W2          N/A
VAL MARIE        N/A     16  14  93 SW5         N/A
ROCKGLEN         N/A     32  25  74 NW7         N/A  WCI  26
ASSINIBOIA       N/A     10   9  92 W1          N/A
$$




USA.gov is the U.S. government's official web portal to all federal, state and local government web resources and services.